[[[{"header":{"parameterUnit":"kt","parameterCategory":2,"dx":1,"dy":1,"la1":30.253999710083008,"la2":30.299108505249023,"lo1":-89.0895004272461,"lo2":-89.04439544677734,"nx":28,"ny":28,"refTime":"2022-09-25T21:00:00:Z","depth":0,"parameterNumber":1,"parameterNumberName":"U-component_of_WINDS"},"data":[0.0722,0.0655,0.0654,0.0576,0.0562,0.0508,0.0488,0.0463,0.0442,0.0377,0.034,0.0331,0.0308,0.0262,0.0221,0.0217,0.0198,0.0178,0.0177,0.0274,0.0287,0.0299,0.0314,0.0175,0.0175,0.0075,0.0074,0.0074,0.0798,0.0783,0.0742,0.07,0.0664,0.0685,0.0653,0.0621,0.0572,0.0545,0.0508,0.045,0.0404,0.0387,0.0342,0.031,0.0315,0.0298,0.0298,0.0294,0.0399,0.0415,0.0295,0.0295,0.0295,0.0295,0.0295,0.0295,0.0935,0.0895,0.0869,0.0823,0.0801,0.0773,0.0734,0.0723,0.0682,0.0634,0.0639,0.0583,0.0554,0.0497,0.0476,0.0432,0.045,0.0429,0.0424,0.0418,0.0412,0.0554,0.0425,0.0425,0.0425,0.0426,0.0426,0,0.1034,0.1036,0.0995,0.0954,0.092,0.0887,0.0857,0.0832,0.0831,0.0796,0.0746,0.0716,0.0657,0.0607,0.0564,0.0546,0.0559,0.056,0.0545,0.0541,0.0544,0.054,0.0709,0.0562,0.0564,0.0564,0.0565,0.0566,0.1171,0.1124,0.1094,0.1066,0.1048,0.1002,0.0973,0.0976,0.0945,0.0907,0.087,0.0822,0.0783,0.0701,0.0685,0.0639,0.0644,0.0589,0.0637,0.0637,0.0641,0.0643,0.0638,0.0578,0.0576,0.0575,0.0574,0,0.1248,0.1243,0.1169,0.1143,0.1135,0.1085,0.1062,0.1021,0.1014,0.0956,0.0943,0.0929,0.0879,0.0872,0.0811,0.0809,0.0726,0.0734,0.0737,0.0737,0.0686,0.069,0.0522,0.0499,0.0647,0.0645,0.0644,0,0.1361,0.1298,0.1295,0.1251,0.1183,0.1186,0.1118,0.1104,0.1078,0.1033,0.1048,0.1004,0.1002,0.0958,0.0954,0.0886,0.0874,0.0867,0.0866,0.0864,0.0865,0.0844,0.085,0.0868,0.0869,0.087,0.0871,0,0.1479,0.1404,0.1335,0.1316,0.128,0.1247,0.123,0.1201,0.1172,0.1134,0.1115,0.107,0.1044,0.1009,0.1004,0.1037,0.092,0.0964,0.0913,0.0913,0.0884,0.0885,0.0742,0.0872,0.0872,0.0872,0.0873,0,0.1567,0.153,0.143,0.1401,0.138,0.1334,0.129,0.1249,0.1216,0.1211,0.118,0.1187,0.1127,0.1172,0.1089,0.1133,0.1107,0.1096,0.1092,0.1082,0.1131,0.1048,0.0915,0.0899,0.108,0.1081,0.1083,0,0.1704,0.1601,0.1603,0.1507,0.1458,0.1478,0.1427,0.1397,0.1386,0.1342,0.133,0.1279,0.131,0.1293,0.1253,0.1236,0.1179,0.1244,0.1178,0.1176,0.1185,0.1063,0.1043,0.0946,0.1105,0.1103,0.1101,0,0.1808,0.1764,0.1746,0.1725,0.1686,0.1644,0.1586,0.1537,0.1508,0.1472,0.1421,0.1351,0.1371,0.1341,0.1341,0.13,0.1218,0.1327,0.1326,0.1306,0.1115,0.1097,0.1081,0.1227,0.1225,0.1223,0.1118,0,0.194,0.1887,0.1841,0.1792,0.1759,0.1699,0.169,0.1657,0.1661,0.1649,0.1575,0.1546,0.1492,0.1472,0.1474,0.1383,0.1396,0.1417,0.1456,0.1377,0.1342,0.1328,0.1509,0.1511,0.1511,0.1512,0,0,0.207,0.1994,0.1995,0.1938,0.1909,0.1929,0.1864,0.1839,0.1786,0.1765,0.1789,0.1682,0.1656,0.1566,0.1541,0.152,0.1502,0.1529,0.1415,0.1405,0.1395,0.1358,0.1343,0.1514,0.1514,0.1515,0.1515,0,0.2115,0.2092,0.2029,0.2004,0.1965,0.1955,0.1941,0.1904,0.1893,0.182,0.1834,0.1788,0.1702,0.1673,0.1646,0.1541,0.1552,0.1526,0.1472,0.1425,0.1413,0.1403,0.1364,0.135,0.1517,0.1517,0.1517,0,0.2215,0.2189,0.2158,0.2095,0.2069,0.2017,0.2058,0.2001,0.1963,0.1982,0.1908,0.189,0.1849,0.1766,0.1728,0.1746,0.1598,0.1643,0.1636,0.1631,0.1584,0.157,0.1557,0.1725,0.1726,0.1726,0,0,0.2255,0.2206,0.2176,0.2104,0.2087,0.2071,0.2042,0.2042,0.2006,0.1991,0.1967,0.193,0.188,0.1847,0.1799,0.1709,0.1699,0.1669,0.1659,0.1651,0.1641,0.1592,0.1578,0.1729,0.1729,0.1729,0,0,0.2273,0.2237,0.2247,0.2162,0.2128,0.2093,0.2048,0.2059,0.2015,0.202,0.2015,0.2005,0.1927,0.1907,0.1948,0.1812,0.1852,0.1842,0.1827,0.1815,0.1805,0.181,0.1981,0,0,0,0,0,0.2313,0.2242,0.2252,0.2236,0.2154,0.2088,0.2078,0.2073,0.2102,0.2067,0.2048,0.2062,0.1928,0.1964,0.1948,0.1901,0.1767,0.176,0.1754,0.1714,0.1701,0.169,0,0,0,0,0,0,0.2307,0.2288,0.2254,0.2216,0.2197,0.2091,0.2138,0.2135,0.2105,0.2109,0.2065,0.2061,0.2054,0.1972,0.1957,0.1913,0.1986,0.1764,0.1759,0.1754,0.171,0.1699,0.169,0,0,0,0,0,0.2302,0.2287,0.2157,0.2216,0.22,0.2177,0.2141,0.2139,0.2115,0.2085,0.2081,0.2114,0.2053,0.204,0.1963,0.192,0.1997,0.1991,0.1761,0.1756,0.1752,0.1705,0,0,0,0,0,0,0.2298,0.2283,0.2154,0.2149,0.2243,0.2183,0.2174,0.2142,0.2093,0.2088,0.2134,0.2138,0.2051,0.2041,0.2031,0.1923,0.2005,0.1999,0.1996,0.1757,0.1754,0.1751,0,0,0,0,0,0,0.2292,0.2279,0.2151,0.2184,0.2183,0.2188,0.218,0.2114,0.2092,0.2145,0.2146,0.2136,0.2066,0.2042,0.2034,0.1931,0.2011,0.2006,0.2002,0.2,0.1754,0.1752,0,0,0,0,0,0,0.2286,0.2275,0.2186,0.2185,0.2184,0.2126,0.213,0.2045,0.2123,0.2146,0.213,0.2133,0.2066,0.2058,0.2036,0.1936,0.1932,0.2011,0.2008,0.2005,0.2003,0,0,0,0,0,0,0,0.2282,0.2357,0.2184,0.2185,0.2184,0.2101,0.21,0.2099,0.2124,0.2126,0.2129,0.2131,0.2042,0.2036,0.203,0.194,0,0,0.2012,0.2009,0,0,0,0,0,0,0,0,0.2361,0.2358,0.2184,0.2183,0.2182,0.2101,0.21,0.2099,0.2124,0.2126,0.2128,0.213,0.2041,0.2036,0.2031,0,0,0,0,0,0,0,0,0,0,0,0,0,0,0,0.2184,0.2183,0,0.2101,0.21,0.2099,0.2124,0.2126,0.2128,0.213,0.2039,0.2035,0.2031,0,0,0,0,0,0,0,0,0,0,0,0,0,0,0,0,0,0,0,0,0,0,0,0,0,0,0,0,0,0,0,0,0,0,0,0,0,0,0,0,0,0,0,0,0,0,0,0,0,0,0,0,0,0,0,0,0,0,0,0,0,0,0,0,0,0,0,0,0]}],[{"header":{"parameterUnit":"kt","parameterCategory":2,"dx":1,"dy":1,"la1":30.253999710083008,"la2":30.299108505249023,"lo1":-89.0895004272461,"lo2":-89.04439544677734,"nx":28,"ny":28,"refTime":"2022-09-25T21:00:00:Z","depth":0,"parameterNumber":2,"parameterNumberName":"V-component_of_WINDS"},"data":[-13.3797,-13.4004,-13.3986,-13.4212,-13.4232,-13.4382,-13.4429,-13.4487,-13.4526,-13.4699,-13.4794,-13.4792,-13.482,-13.4925,-13.5024,-13.502,-13.5063,-13.5152,-13.5132,-13.4757,-13.4703,-13.4652,-13.4603,-13.5162,-13.5163,-13.5523,-13.5526,-13.5529,-13.3525,-13.3549,-13.3663,-13.3761,-13.3857,-13.3761,-13.3828,-13.3914,-13.405,-13.41,-13.4192,-13.4341,-13.4454,-13.4451,-13.4555,-13.4647,-13.4606,-13.4677,-13.4669,-13.4675,-13.4274,-13.4222,-13.4709,-13.4709,-13.4709,-13.4709,-13.4709,-13.4708,-13.3024,-13.315,-13.3197,-13.3321,-13.3363,-13.3427,-13.3541,-13.3537,-13.3646,-13.3755,-13.3706,-13.3857,-13.39,-13.4012,-13.4044,-13.4158,-13.4074,-13.4144,-13.4161,-13.418,-13.4205,-13.3689,-13.4174,-13.4172,-13.4171,-13.417,-13.4169,0,-13.2652,-13.2627,-13.2735,-13.2838,-13.2925,-13.3002,-13.3067,-13.3136,-13.3071,-13.3163,-13.3293,-13.3364,-13.3502,-13.3619,-13.371,-13.3727,-13.3632,-13.3619,-13.3667,-13.3694,-13.3707,-13.3703,-13.305,-13.3605,-13.36,-13.3596,-13.3593,-13.3591,-13.2145,-13.2293,-13.2332,-13.241,-13.2441,-13.2567,-13.2638,-13.2569,-13.2646,-13.2713,-13.2825,-13.2942,-13.3032,-13.3241,-13.3228,-13.333,-13.3284,-13.3498,-13.3298,-13.3318,-13.3287,-13.328,-13.3293,-13.3539,-13.3546,-13.3551,-13.3555,0,-13.1862,-13.1827,-13.2049,-13.2071,-13.208,-13.2238,-13.2254,-13.2374,-13.2354,-13.2515,-13.2549,-13.2517,-13.2644,-13.2596,-13.273,-13.2701,-13.2955,-13.2907,-13.294,-13.2928,-13.3116,-13.3099,-13.3732,-13.3811,-13.323,-13.3236,-13.324,0,-13.1416,-13.1612,-13.1548,-13.1679,-13.1893,-13.1819,-13.2032,-13.2036,-13.2072,-13.2198,-13.2083,-13.2203,-13.2122,-13.2235,-13.2192,-13.2391,-13.2415,-13.2404,-13.2391,-13.2416,-13.2417,-13.2453,-13.2427,-13.2353,-13.235,-13.2347,-13.2345,0,-13.0977,-13.1171,-13.1383,-13.1421,-13.1462,-13.1562,-13.1583,-13.1622,-13.169,-13.1771,-13.1814,-13.1912,-13.1966,-13.2042,-13.1986,-13.1853,-13.2228,-13.2032,-13.2216,-13.2218,-13.2302,-13.2298,-13.287,-13.2341,-13.234,-13.2339,-13.2337,0,-13.061,-13.0697,-13.1009,-13.104,-13.1093,-13.1232,-13.1325,-13.1432,-13.1481,-13.1463,-13.1525,-13.1441,-13.1611,-13.142,-13.1652,-13.1494,-13.1552,-13.1557,-13.1569,-13.1581,-13.1369,-13.1699,-13.2249,-13.2305,-13.1593,-13.1586,-13.1581,0,-13.0117,-13.0422,-13.036,-13.0657,-13.0791,-13.0653,-13.0804,-13.0851,-13.084,-13.0949,-13.0934,-13.1059,-13.0907,-13.0938,-13.106,-13.1049,-13.1255,-13.102,-13.1175,-13.1181,-13.1168,-13.1673,-13.1768,-13.2134,-13.1501,-13.1509,-13.1515,0,-12.973,-12.9779,-12.9837,-12.9877,-12.9929,-13.0039,-13.0213,-13.0321,-13.0397,-13.0462,-13.0605,-13.0777,-13.0669,-13.0723,-13.0664,-13.0793,-13.1113,-13.0659,-13.0658,-13.0743,-13.1456,-13.1545,-13.1607,-13.1045,-13.1054,-13.1062,-13.1452,0,-12.9185,-12.9332,-12.9486,-12.9578,-12.9656,-12.9838,-12.9789,-12.9876,-12.9813,-12.9796,-13.0004,-13.0028,-13.0135,-13.0191,-13.013,-13.0441,-13.038,-13.0263,-13.0073,-13.0406,-13.0532,-13.0584,-12.9888,-12.9882,-12.9877,-12.9873,0,0,-12.8722,-12.8932,-12.8857,-12.9024,-12.9085,-12.8938,-12.9138,-12.9179,-12.9266,-12.9311,-12.9204,-12.9453,-12.9476,-12.9734,-12.9833,-12.9876,-12.9926,-12.9812,-13.0248,-13.029,-13.0328,-13.0465,-13.052,-12.9865,-12.9863,-12.9861,-12.9859,0,-12.8513,-12.8545,-12.8744,-12.8785,-12.8841,-12.8814,-12.8863,-12.8891,-12.889,-12.9094,-12.8967,-12.9085,-12.9285,-12.9326,-12.9374,-12.978,-12.9677,-12.9816,-13.0053,-13.0199,-13.0248,-13.0291,-13.0436,-13.0489,-12.9847,-12.9848,-12.9848,0,-12.8123,-12.8146,-12.8237,-12.837,-12.8404,-12.8545,-12.8334,-12.8491,-12.8593,-12.842,-12.8624,-12.8631,-12.8681,-12.8931,-12.9041,-12.8947,-12.9453,-12.9283,-12.9313,-12.9324,-12.9463,-12.9522,-12.9574,-12.8887,-12.8884,-12.8881,0,0,-12.7948,-12.8084,-12.8086,-12.8321,-12.8352,-12.8314,-12.8383,-12.8326,-12.8377,-12.8398,-12.8403,-12.8455,-12.8569,-12.8646,-12.8751,-12.9033,-12.9037,-12.9167,-12.9213,-12.925,-12.9281,-12.943,-12.9488,-12.887,-12.8869,-12.8869,0,0,-12.7864,-12.7876,-12.7803,-12.807,-12.8124,-12.8139,-12.8283,-12.8194,-12.8283,-12.8256,-12.8165,-12.8175,-12.8408,-12.8418,-12.8267,-12.8682,-12.8495,-12.853,-12.8667,-12.8723,-12.8768,-12.876,-12.8052,0,0,0,0,0,-12.7624,-12.7874,-12.7809,-12.7846,-12.8011,-12.8176,-12.8196,-12.8128,-12.7998,-12.8114,-12.8104,-12.7988,-12.8318,-12.8182,-12.8218,-12.8388,-12.8718,-12.8745,-12.877,-12.9013,-12.9072,-12.9123,0,0,0,0,0,0,-12.7638,-12.7684,-12.7802,-12.7829,-12.7865,-12.8166,-12.793,-12.7918,-12.7984,-12.7959,-12.7994,-12.7989,-12.7933,-12.8158,-12.8192,-12.8355,-12.804,-12.8728,-12.8751,-12.8772,-12.9033,-12.9082,-12.9124,0,0,0,0,0,-12.7649,-12.7686,-12.7969,-12.7824,-12.7856,-12.7826,-12.792,-12.7908,-12.7957,-12.7942,-12.7934,-12.7901,-12.7939,-12.7963,-12.8178,-12.8341,-12.8016,-12.8029,-12.8743,-12.8761,-12.8777,-12.9057,0,0,0,0,0,0,-12.7657,-12.7675,-12.7974,-12.7981,-12.7725,-12.7807,-12.7818,-12.79,-12.7934,-12.7929,-12.7843,-12.7823,-12.7947,-12.7964,-12.7983,-12.834,-12.7996,-12.8009,-12.8018,-12.8757,-12.8771,-12.8784,0,0,0,0,0,0,-12.7655,-12.7683,-12.7977,-12.7856,-12.7848,-12.7791,-12.7801,-12.7972,-12.7937,-12.7833,-12.7817,-12.7834,-12.7917,-12.7966,-12.798,-12.8251,-12.7981,-12.7994,-12.8002,-12.8008,-12.8768,-12.878,0,0,0,0,0,0,-12.7665,-12.7689,-12.7853,-12.7848,-12.784,-12.7913,-12.794,-12.8113,-12.7836,-12.7833,-12.7809,-12.7796,-12.7923,-12.7935,-12.798,-12.8245,-12.8249,-12.7981,-12.799,-12.7996,-12.8,0,0,0,0,0,0,0,-12.7673,-12.7533,-12.7933,-12.7841,-12.7834,-12.8045,-12.8047,-12.8049,-12.7833,-12.7822,-12.7812,-12.7802,-12.7909,-12.7922,-12.7937,-12.824,0,0,-12.798,-12.7986,0,0,0,0,0,0,0,0,-12.7521,-12.753,-12.7933,-12.7935,-12.7936,-12.8046,-12.8047,-12.8049,-12.7831,-12.7823,-12.7814,-12.7806,-12.7912,-12.7924,-12.7935,0,0,0,0,0,0,0,0,0,0,0,0,0,0,0,-12.7934,-12.7935,0,-12.8046,-12.8047,-12.8048,-12.783,-12.7823,-12.7816,-12.7809,-12.7915,-12.7925,-12.7934,0,0,0,0,0,0,0,0,0,0,0,0,0,0,0,0,0,0,0,0,0,0,0,0,0,0,0,0,0,0,0,0,0,0,0,0,0,0,0,0,0,0,0,0,0,0,0,0,0,0,0,0,0,0,0,0,0,0,0,0,0,0,0,0,0,0,0,0,0]}]]]